| time (UTC) | temp C | wind direction | speed KPH | gust KPH | rain 1hr cm | rain 24hr cm | rain mn cm | humidity % | barometer mb |
| 20260905184516 | 26 | 319 | 3.2 | 6.4 | 0.00 | 0.00 | 0.00 | 55 | 1009.7 |
| 20260905183517 | 26 | 2 | 3.2 | 8.0 | 0.00 | 0.00 | 0.00 | 55 | 1009.6 |
| 20260905182516 | 27 | 331 | 3.2 | 6.4 | 0.00 | 0.00 | 0.00 | 57 | 1009.7 |
| 20260905181516 | 26 | 4 | 1.6 | 8.0 | 0.00 | 0.00 | 0.00 | 57 | 1009.8 |
| 20260905180517 | 26 | 359 | 3.2 | 8.0 | 0.00 | 0.00 | 0.00 | 56 | 1009.9 |
| 20260905175517 | 26 | 313 | 1.6 | 4.8 | 0.00 | 0.00 | 0.00 | 56 | 1010.0 |
| 20260905174517 | 26 | 296 | 1.6 | 4.8 | 0.00 | 0.00 | 0.00 | 59 | 1010.0 |
| 20260905173518 | 26 | 322 | 1.6 | 6.4 | 0.00 | 0.00 | 0.00 | 59 | 1010.0 |
| 20260905172537 | 25 | 321 | 3.2 | 6.4 | 0.00 | 0.00 | 0.00 | 60 | 1010.2 |
| 20260905171517 | 25 | 355 | 3.2 | 6.4 | 0.00 | 0.00 | 0.00 | 60 | 1010.1 |
| 20260905170539 | 25 | 11 | 1.6 | 8.0 | 0.00 | 0.00 | 0.00 | 61 | 1010.2 |
| 20260905165518 | 25 | 316 | 3.2 | 8.0 | 0.00 | 0.00 | 0.00 | 62 | 1010.2 |
| 20260905164558 | 24 | 351 | 1.6 | 6.4 | 0.00 | 0.00 | 0.00 | 62 | 1010.3 |
| 20260905163518 | 25 | 349 | 1.6 | 8.0 | 0.00 | 0.00 | 0.00 | 61 | 1010.2 |
| 20260905162518 | 25 | 56 | 1.6 | 4.8 | 0.00 | 0.00 | 0.00 | 60 | 1010.1 |
| 20260905161519 | 25 | 31 | 3.2 | 6.4 | 0.00 | 0.00 | 0.00 | 61 | 1010.2 |
| 20260905160519 | 25 | 324 | 3.2 | 6.4 | 0.00 | 0.00 | 0.00 | 61 | 1010.2 |
| 20260905155519 | 25 | 12 | 3.2 | 4.8 | 0.00 | 0.00 | 0.00 | 61 | 1010.2 |
| 20260905154519 | 25 | 337 | 3.2 | 6.4 | 0.00 | 0.00 | 0.00 | 61 | 1010.2 |
| 20260905153519 | 25 | 232 | 1.6 | 4.8 | 0.00 | 0.00 | 0.00 | 63 | 1010.3 |
| 20260905152519 | 25 | 346 | 3.2 | 6.4 | 0.00 | 0.00 | 0.00 | 61 | 1010.5 |
| 20260905151519 | 25 | 0.0 | 0.0 | 0.00 | 0.00 | 0.00 | 62 | 1010.4 | |
| 20260905150519 | 25 | 5 | 3.2 | 9.7 | 0.00 | 0.00 | 0.00 | 63 | 1010.3 |
| 20260905145520 | 25 | 53 | 1.6 | 6.4 | 0.00 | 0.00 | 0.00 | 65 | 1010.4 |
| 20260905144520 | 24 | 350 | 3.2 | 6.4 | 0.00 | 0.00 | 0.00 | 66 | 1010.4 |
| 20260905143520 | 24 | 353 | 4.8 | 11.3 | 0.00 | 0.00 | 0.00 | 65 | 1010.3 |
| 20260905142515 | 25 | 360 | 3.2 | 11.3 | 0.00 | 0.00 | 0.00 | 66 | 1010.2 |
| 20260905141520 | 24 | 22 | 1.6 | 8.0 | 0.00 | 0.00 | 0.00 | 68 | 1010.2 |
| 20260905140520 | 23 | 359 | 3.2 | 6.4 | 0.00 | 0.00 | 0.00 | 71 | 1010.2 |
| 20260905135520 | 23 | 356 | 3.2 | 6.4 | 0.00 | 0.00 | 0.00 | 71 | 1010.4 |
| 20260905134521 | 22 | 320 | 1.6 | 6.4 | 0.00 | 0.00 | 0.00 | 73 | 1010.4 |
| 20260905133516 | 22 | 343 | 3.2 | 8.0 | 0.00 | 0.00 | 0.00 | 73 | 1010.6 |
| 20260905132522 | 22 | 322 | 1.6 | 6.4 | 0.00 | 0.00 | 0.00 | 73 | 1010.6 |
| 20260905131521 | 21 | 16 | 1.6 | 6.4 | 0.00 | 0.00 | 0.00 | 74 | 1010.7 |
| 20260905130522 | 21 | 1 | 1.6 | 3.2 | 0.00 | 0.00 | 0.00 | 73 | 1010.9 |
| 20260905125521 | 21 | 348 | 3.2 | 6.4 | 0.00 | 0.00 | 0.00 | 74 | 1010.8 |
| 20260905124601 | 21 | 330 | 1.6 | 4.8 | 0.00 | 0.00 | 0.00 | 75 | 1010.8 |
| 20260905123522 | 21 | 320 | 1.6 | 4.8 | 0.00 | 0.00 | 0.00 | 76 | 1010.9 |
| 20260905122542 | 20 | 309 | 3.2 | 4.8 | 0.00 | 0.00 | 0.00 | 77 | 1010.9 |
| 20260905121542 | 20 | 351 | 1.6 | 6.4 | 0.00 | 0.00 | 0.00 | 78 | 1010.9 |
| 20260905120517 | 19 | 345 | 1.6 | 9.7 | 0.00 | 0.00 | 0.00 | 79 | 1010.9 |
| 20260905115543 | 19 | 342 | 4.8 | 6.4 | 0.00 | 0.00 | 0.00 | 79 | 1010.8 |
| 20260905114518 | 19 | 355 | 3.2 | 11.3 | 0.00 | 0.00 | 0.00 | 79 | 1010.7 |
| 20260905113522 | 19 | 340 | 3.2 | 8.0 | 0.00 | 0.00 | 0.00 | 79 | 1010.4 |
| 20260905112518 | 18 | 360 | 4.8 | 11.3 | 0.00 | 0.00 | 0.00 | 80 | 1010.3 |
| 20260905111518 | 18 | 3 | 4.8 | 12.9 | 0.00 | 0.00 | 0.00 | 81 | 1010.2 |
| 20260905110524 | 18 | 5 | 1.6 | 8.0 | 0.00 | 0.00 | 0.00 | 83 | 1010.0 |
| 20260905105523 | 18 | 336 | 1.6 | 6.4 | 0.00 | 0.00 | 0.00 | 83 | 1010.0 |
| 20260905104523 | 17 | 312 | 1.6 | 3.2 | 0.00 | 0.00 | 0.00 | 84 | 1010.0 |
| 20260905103523 | 17 | 354 | 1.6 | 3.2 | 0.00 | 0.00 | 0.00 | 84 | 1010.0 |
| 20260905102523 | 17 | 0 | 0.0 | 1.6 | 0.00 | 0.00 | 0.00 | 84 | 1010.0 |
| 20260905101524 | 18 | 12 | 0.0 | 1.6 | 0.00 | 0.00 | 0.00 | 83 | 1009.8 |
| 20260905100544 | 18 | 326 | 0.0 | 3.2 | 0.00 | 0.00 | 0.00 | 83 | 1009.7 |
| 20260905095525 | 18 | 348 | 1.6 | 4.8 | 0.00 | 0.00 | 0.00 | 82 | 1009.7 |
| 20260905094524 | 18 | 331 | 1.6 | 6.4 | 0.00 | 0.00 | 0.00 | 82 | 1009.7 |
| 20260905093520 | 18 | 358 | 3.2 | 8.0 | 0.00 | 0.00 | 0.00 | 81 | 1009.7 |
| 20260905092546 | 18 | 351 | 1.6 | 9.7 | 0.00 | 0.00 | 0.00 | 80 | 1009.6 |
| 20260905091525 | 18 | 347 | 1.6 | 4.8 | 0.00 | 0.00 | 0.00 | 79 | 1009.6 |
| 20260905090525 | 19 | 359 | 1.6 | 3.2 | 0.00 | 0.00 | 0.00 | 78 | 1009.6 |
| 20260905085545 | 19 | 346 | 3.2 | 4.8 | 0.00 | 0.00 | 0.00 | 77 | 1009.6 |
| 20260905084525 | 20 | 2 | 1.6 | 4.8 | 0.00 | 0.00 | 0.00 | 76 | 1009.6 |
| 20260905083525 | 20 | 349 | 1.6 | 4.8 | 0.00 | 0.00 | 0.00 | 75 | 1009.6 |
| 20260905082521 | 20 | 348 | 3.2 | 9.7 | 0.00 | 0.00 | 0.00 | 74 | 1009.5 |
| 20260905081541 | 20 | 354 | 4.8 | 11.3 | 0.00 | 0.00 | 0.00 | 73 | 1009.5 |
| 20260905080521 | 20 | 11 | 4.8 | 9.7 | 0.00 | 0.00 | 0.00 | 73 | 1009.6 |
| 20260905075548 | 21 | 343 | 3.2 | 6.4 | 0.00 | 0.08 | 0.00 | 72 | 1009.5 |
| 20260905074515 | 21 | 4 | 1.6 | 9.7 | 0.00 | 0.51 | 0.00 | 71 | 1009.4 |
| 20260905073546 | 21 | 350 | 4.8 | 6.4 | 0.00 | 0.71 | 0.00 | 71 | 1009.3 |
| 20260905072536 | 21 | 346 | 4.8 | 11.3 | 0.00 | 0.71 | 0.00 | 71 | 1009.4 |
| 20260905071527 | 21 | 334 | 4.8 | 9.7 | 0.00 | 0.71 | 0.00 | 70 | 1009.5 |
| 20260905070556 | 21 | 334 | 3.2 | 9.7 | 0.00 | 0.74 | 0.00 | 70 | 1009.5 |
| 20260905065516 | 21 | 346 | 3.2 | 8.0 | 0.00 | 1.27 | 0.00 | 70 | 1009.6 |
| 20260905064527 | 21 | 328 | 4.8 | 8.0 | 0.00 | 1.45 | 0.00 | 70 | 1009.7 |
| 20260905063528 | 21 | 341 | 3.2 | 8.0 | 0.00 | 1.60 | 0.00 | 71 | 1009.7 |
| 20260905062527 | 21 | 333 | 1.6 | 8.0 | 0.00 | 1.93 | 0.00 | 70 | 1009.8 |
| 20260905061547 | 21 | 341 | 4.8 | 8.0 | 0.00 | 1.93 | 0.00 | 70 | 1009.8 |
| 20260905060527 | 21 | 335 | 3.2 | 8.0 | 0.00 | 1.93 | 0.00 | 70 | 1009.9 |
| 20260905055517 | 21 | 328 | 3.2 | 8.0 | 0.00 | 2.01 | 0.00 | 69 | 1010.0 |
| 20260905054527 | 21 | 331 | 3.2 | 6.4 | 0.00 | 2.16 | 0.00 | 69 | 1010.1 |
| 20260905053529 | 21 | 348 | 3.2 | 6.4 | 0.00 | 2.29 | 0.00 | 68 | 1010.2 |
| 20260905052529 | 21 | 338 | 3.2 | 9.7 | 0.00 | 2.34 | 0.00 | 67 | 1010.2 |
| 20260905051517 | 21 | 341 | 3.2 | 9.7 | 0.00 | 2.34 | 0.00 | 68 | 1010.3 |
| 20260905050548 | 21 | 333 | 3.2 | 6.4 | 0.00 | 2.34 | 0.00 | 71 | 1010.5 |
| 20260905045528 | 21 | 334 | 0.0 | 3.2 | 0.00 | 2.34 | 0.00 | 73 | 1010.6 |
| 20260905044528 | 21 | 345 | 3.2 | 6.4 | 0.00 | 2.34 | 0.00 | 73 | 1010.7 |
| 20260905043528 | 21 | 0 | 1.6 | 4.8 | 0.00 | 2.34 | 0.00 | 72 | 1010.7 |
| 20260905042528 | 21 | 328 | 0.0 | 3.2 | 0.00 | 2.34 | 0.00 | 71 | 1010.6 |
| 20260905041529 | 21 | 328 | 3.2 | 4.8 | 0.00 | 2.34 | 0.00 | 71 | 1010.8 |
| 20260905040529 | 21 | 336 | 0.0 | 3.2 | 0.00 | 2.34 | 0.00 | 74 | 1010.8 |
| 20260905035515 | 21 | 334 | 1.6 | 4.8 | 0.00 | 2.34 | 2.34 | 75 | 1010.8 |
| 20260905034516 | 21 | 299 | 0.0 | 3.2 | 0.00 | 2.36 | 2.34 | 76 | 1010.7 |
| 20260905033516 | 21 | 293 | 0.0 | 1.6 | 0.00 | 2.41 | 2.34 | 75 | 1010.7 |
| 20260905032516 | 21 | 322 | 1.6 | 3.2 | 0.00 | 2.41 | 2.34 | 75 | 1010.8 |
| 20260905031516 | 21 | 301 | 1.6 | 1.6 | 0.00 | 2.41 | 2.34 | 77 | 1010.7 |
| 20260905030516 | 21 | 296 | 0.0 | 1.6 | 0.00 | 2.41 | 2.34 | 80 | 1010.7 |
| 20260905025517 | 21 | 338 | 0.0 | 1.6 | 0.00 | 2.41 | 2.34 | 81 | 1010.6 |
| 20260905024520 | 21 | 309 | 0.0 | 1.6 | 0.00 | 2.41 | 2.34 | 81 | 1010.6 |
| 20260905023517 | 21 | 323 | 0.0 | 1.6 | 0.00 | 2.41 | 2.34 | 81 | 1010.5 |
| 20260905022517 | 21 | 309 | 1.6 | 3.2 | 0.00 | 2.41 | 2.34 | 82 | 1010.6 |
| 20260905021517 | 22 | 311 | 1.6 | 3.2 | 0.00 | 2.41 | 2.34 | 81 | 1010.7 |
| 20260905020517 | 22 | 304 | 0.0 | 1.6 | 0.00 | 2.41 | 2.34 | 80 | 1010.7 |
| 20260905015538 | 22 | 279 | 0.0 | 1.6 | 0.00 | 2.41 | 2.34 | 79 | 1010.6 |
| 20260905014518 | 22 | 303 | 1.6 | 1.6 | 0.00 | 2.41 | 2.34 | 78 | 1010.5 |
| 20260905013518 | 23 | 309 | 0.0 | 1.6 | 0.00 | 2.41 | 2.34 | 77 | 1010.5 |
| 20260905012518 | 23 | 0.0 | 0.0 | 0.00 | 2.41 | 2.34 | 76 | 1010.5 | |
| 20260905011518 | 23 | 0.0 | 0.0 | 0.00 | 2.41 | 2.34 | 76 | 1010.5 | |
| 20260905010518 | 23 | 274 | 0.0 | 1.6 | 0.00 | 2.41 | 2.34 | 76 | 1010.7 |
| 20260905005519 | 23 | 0.0 | 0.0 | 0.00 | 2.41 | 2.34 | 76 | 1010.6 | |
| 20260905004518 | 23 | 0.0 | 0.0 | 0.00 | 2.41 | 2.34 | 76 | 1010.6 | |
| 20260905003518 | 23 | 0.0 | 0.0 | 0.00 | 2.41 | 2.34 | 74 | 1010.6 | |
| 20260905002519 | 23 | 0.0 | 0.0 | 0.00 | 2.41 | 2.34 | 72 | 1010.5 | |
| 20260905001539 | 23 | 0.0 | 0.0 | 0.00 | 2.41 | 2.34 | 71 | 1010.5 | |
| 20260905000523 | 23 | 0.0 | 0.0 | 0.00 | 2.41 | 2.34 | 71 | 1010.5 | |
| 20260904235520 | 23 | 290 | 0.0 | 1.6 | 0.00 | 2.41 | 2.34 | 70 | 1010.4 |
| 20260904234539 | 24 | 248 | 0.0 | 1.6 | 0.00 | 2.41 | 2.34 | 69 | 1010.3 |
| 20260904233520 | 25 | 209 | 0.0 | 1.6 | 0.00 | 2.41 | 2.34 | 66 | 1010.2 |
| 20260904232520 | 25 | 0.0 | 0.0 | 0.00 | 2.41 | 2.34 | 64 | 1010.3 | |
| 20260904231541 | 26 | 0.0 | 0.0 | 0.00 | 2.41 | 2.34 | 63 | 1010.2 | |
| 20260904230520 | 26 | 127 | 0.0 | 3.2 | 0.00 | 2.41 | 2.34 | 62 | 1010.2 |
| 20260904225521 | 26 | 344 | 1.6 | 4.8 | 0.00 | 2.41 | 2.34 | 60 | 1010.2 |
| 20260904224521 | 27 | 320 | 1.6 | 3.2 | 0.00 | 2.41 | 2.34 | 58 | 1010.1 |
| 20260904223521 | 27 | 312 | 1.6 | 4.8 | 0.00 | 2.41 | 2.34 | 56 | 1010.1 |
| 20260904222521 | 28 | 307 | 1.6 | 3.2 | 0.00 | 2.41 | 2.34 | 55 | 1010.2 |
| 20260904221521 | 28 | 355 | 1.6 | 4.8 | 0.00 | 2.41 | 2.34 | 56 | 1010.0 |
| 20260904220521 | 27 | 319 | 3.2 | 4.8 | 0.00 | 2.41 | 2.34 | 57 | 1010.0 |
| 20260904215519 | 27 | 315 | 4.8 | 9.7 | 0.00 | 2.41 | 2.34 | 56 | 1010.1 |
| 20260904214522 | 27 | 309 | 3.2 | 4.8 | 0.00 | 2.41 | 2.34 | 56 | 1010.1 |
| 20260904213521 | 27 | 313 | 1.6 | 3.2 | 0.00 | 2.41 | 2.34 | 56 | 1010.0 |
| 20260904212522 | 27 | 322 | 1.6 | 4.8 | 0.00 | 2.41 | 2.34 | 56 | 1010.0 |
| 20260904211602 | 27 | 348 | 1.6 | 4.8 | 0.00 | 2.41 | 2.34 | 55 | 1010.0 |
| 20260904210522 | 28 | 350 | 3.2 | 6.4 | 0.00 | 2.41 | 2.34 | 54 | 1010.1 |
| 20260904205523 | 27 | 338 | 4.8 | 8.0 | 0.00 | 2.41 | 2.34 | 55 | 1010.1 |
| 20260904204521 | 28 | 306 | 3.2 | 11.3 | 0.00 | 2.41 | 2.34 | 53 | 1010.1 |
| 20260904203543 | 29 | 344 | 1.6 | 4.8 | 0.00 | 2.41 | 2.34 | 51 | 1010.1 |
| 20260904202524 | 29 | 2 | 1.6 | 6.4 | 0.00 | 2.41 | 2.34 | 52 | 1010.1 |
| 20260904201521 | 29 | 347 | 4.8 | 8.0 | 0.00 | 2.41 | 2.34 | 52 | 1010.3 |
| 20260904200523 | 28 | 319 | 3.2 | 6.4 | 0.00 | 2.41 | 2.34 | 53 | 1010.2 |
| 20260904195520 | 28 | 324 | 3.2 | 9.7 | 0.00 | 2.41 | 2.34 | 53 | 1010.2 |
| 20260904194540 | 28 | 314 | 3.2 | 9.7 | 0.00 | 2.41 | 2.34 | 53 | 1010.2 |
| 20260904193523 | 28 | 318 | 4.8 | 9.7 | 0.00 | 2.41 | 2.34 | 54 | 1010.3 |
| 20260904192521 | 29 | 325 | 3.2 | 9.7 | 0.00 | 2.41 | 2.34 | 53 | 1010.5 |
| 20260904191524 | 29 | 341 | 3.2 | 6.4 | 0.00 | 2.41 | 2.34 | 54 | 1010.6 |
| 20260904190524 | 28 | 351 | 3.2 | 6.4 | 0.00 | 2.41 | 2.34 | 56 | 1010.7 |
| 20260904185541 | 28 | 328 | 3.2 | 9.7 | 0.00 | 2.41 | 2.34 | 53 | 1010.7 |